Weather History for Bennington, VT

Change the Weather History Date:

Saturday, March 30, 2013

  Actual Average Record
Temperature  
Mean Temperature 40 °F 39 °F  
Max Temperature 54 °F 49 °F 64 °F (2006)
Min Temperature 25 °F 28 °F 12 °F (2008)
Degree Days  
Heating Degree Days 25 26  
Month to date heating degree days 991 958  
Since 1 July heating degree days 5775 6209  
Moisture  
Dew Point 21 °F    
Average Humidity 56    
Maximum Humidity 92    
Minimum Humidity 20    
Precipitation  
Precipitation 0.00 in 0.11 in 0.26 in (2001)
Month to date precipitation 1.06 3.05  
Year to date precipitation 3.72 8.04  
Sea Level Pressure  
Sea Level Pressure 30.09 in    
Wind  
Wind Speed 5 mph (WSW)    
Max Wind Speed 15 mph    
Max Gust Speed 22 mph    
Visibility 10 miles    
Events      
T = Trace of Precipitation, MM = Missing Value Source: NWS Daily Summary

Daily Weather History Graph

Daily Weather History Graph

Search for Another Location

Airport:

Trip Planner

Search our weather history database for the weather conditions in past years. The results will help you decide how hot, cold, wet, or windy it might be!

Date:

Astronomy

Mar. 30, 2013 Rise Set
Actual Time 6:38 AM EDT 7:17 PM EDT
Civil Twilight 6:09 AM EDT 7:45 PM EDT
Nautical Twilight 5:35 AM EDT 8:19 PM EDT
Astronomical Twilight 5:01 AM EDT 8:54 PM EDT
Moon 11:26 PM EDT 8:25 AM EDT
Length of Visible Light 13h 36m
Length of Day
12h 38m
Waning Gibbous, 86% of the Moon is Illuminated
Mar 30
Waning Gibbous
Apr 3
Last Quarter
Apr 10
New
Apr 18
First Quarter
Apr 25
Full

Hourly Weather History & Observations

Time (EDT) Temp. Windchill Dew Point Humidity Pressure Visibility Wind Dir Wind Speed Gust Speed Precip Events Conditions
12:54 AM 37.9 °F 35.5 °F 27.0 °F 65% 30.08 in 10.0 mi West 3.5 mph - N/A   Overcast
1:54 AM 37.9 °F - 27.0 °F 65% 30.09 in 10.0 mi Calm Calm - N/A   Overcast
2:54 AM 32.0 °F - 25.0 °F 75% 30.09 in 10.0 mi Calm Calm - N/A   Partly Cloudy
3:54 AM 28.9 °F - 24.1 °F 82% 30.09 in 10.0 mi Calm Calm - N/A   Partly Cloudy
4:54 AM 27.0 °F 21.6 °F 23.0 °F 85% 30.10 in 10.0 mi South 4.6 mph - N/A   Clear
5:54 AM 27.0 °F 23.0 °F 24.1 °F 89% 30.11 in 10.0 mi SSE 3.5 mph - N/A   Clear
6:54 AM 27.0 °F - 23.0 °F 85% 30.12 in 10.0 mi Calm Calm - N/A   Clear
7:54 AM 30.9 °F - 27.0 °F 85% 30.13 in 10.0 mi Calm Calm - N/A   Clear
8:54 AM 37.9 °F - 28.9 °F 70% 30.13 in 10.0 mi Calm Calm - N/A   Clear
9:54 AM 42.1 °F 38.4 °F 28.9 °F 60% 30.12 in 10.0 mi West 5.8 mph - N/A   Clear
10:54 AM 44.1 °F 40.8 °F 26.1 °F 49% 30.12 in 10.0 mi Variable 5.8 mph - N/A   Clear
11:54 AM 48.0 °F - 19.9 °F 33% 30.10 in 10.0 mi WNW 10.4 mph 17.3 mph N/A   Clear
12:54 PM 50.0 °F - 17.1 °F 27% 30.09 in 10.0 mi NW 6.9 mph - N/A   Partly Cloudy
1:54 PM 48.0 °F - 18.0 °F 30% 30.07 in 10.0 mi WNW 9.2 mph - N/A   Scattered Clouds
2:54 PM 52.0 °F - 16.0 °F 24% 30.05 in 10.0 mi West 12.7 mph 19.6 mph N/A   Mostly Cloudy
3:54 PM 52.0 °F - 15.1 °F 23% 30.04 in 10.0 mi WNW 11.5 mph 18.4 mph N/A   Partly Cloudy
4:54 PM 53.1 °F - 14.0 °F 21% 30.03 in 10.0 mi Variable 4.6 mph - N/A   Mostly Cloudy
5:54 PM 52.0 °F - 15.1 °F 23% 30.04 in 10.0 mi WNW 8.1 mph - N/A   Mostly Cloudy
6:54 PM 48.0 °F - 18.0 °F 30% 30.05 in 10.0 mi WSW 6.9 mph 16.1 mph N/A   Partly Cloudy
7:54 PM 46.0 °F 42.5 °F 19.0 °F 34% 30.08 in 10.0 mi SW 6.9 mph - N/A   Clear
8:54 PM 44.1 °F 40.8 °F 18.0 °F 35% 30.10 in 10.0 mi SW 5.8 mph - N/A   Clear
9:54 PM 39.0 °F 36.8 °F 19.0 °F 45% 30.10 in 10.0 mi SW 3.5 mph - N/A   Clear
10:54 PM 34.0 °F - 19.0 °F 54% 30.11 in 10.0 mi Calm Calm - N/A   Clear
11:54 PM 32.0 °F 27.5 °F 19.9 °F 61% 30.11 in 10.0 mi ESE 4.6 mph - N/A   Clear